| time (UTC) | temp F | wind direction | speed MPH | gust MPH | rain 1hr in | rain 24hr in | rain mn in | humidity % | barometer mb |
| 20260510190903 | 76 | 273 | 4.0 | 6.0 | 0.00 | 0.00 | 0.00 | 18 | |
| 20260510190003 | 76 | 284 | 5.0 | 10.0 | 0.00 | 0.00 | 0.00 | 18 | |
| 20260510185403 | 76 | 278 | 4.0 | 10.0 | 0.00 | 0.00 | 0.00 | 19 | |
| 20260510184713 | 75 | 279 | 3.0 | 7.0 | 0.00 | 0.00 | 0.00 | 18 | |
| 20260510183603 | 75 | 255 | 3.0 | 9.0 | 0.00 | 0.00 | 0.00 | 22 | |
| 20260510182703 | 75 | 279 | 4.0 | 12.0 | 0.00 | 0.00 | 0.00 | 20 | |
| 20260510181803 | 75 | 279 | 3.0 | 12.0 | 0.00 | 0.00 | 0.00 | 20 | |
| 20260510181113 | 75 | 263 | 2.0 | 6.0 | 0.00 | 0.00 | 0.00 | 17 | |
| 20260510180004 | 74 | 176 | 2.0 | 5.0 | 0.00 | 0.00 | 0.00 | 22 | |
| 20260510175403 | 74 | 280 | 1.0 | 4.0 | 0.00 | 0.00 | 0.00 | 20 | |
| 20260510174503 | 73 | 290 | 3.0 | 6.0 | 0.00 | 0.00 | 0.00 | 22 | |
| 20260510173603 | 72 | 103 | 2.0 | 9.0 | 0.00 | 0.00 | 0.00 | 21 | |
| 20260510172703 | 72 | 108 | 2.0 | 9.0 | 0.00 | 0.00 | 0.00 | 21 | |
| 20260510171803 | 71 | 342 | 2.0 | 4.0 | 0.00 | 0.00 | 0.00 | 23 | |
| 20260510170903 | 70 | 333 | 3.0 | 6.0 | 0.00 | 0.00 | 0.00 | 21 | |
| 20260510170003 | 70 | 223 | 1.0 | 5.0 | 0.00 | 0.00 | 0.00 | 25 | |
| 20260510165403 | 69 | 197 | 2.0 | 5.0 | 0.00 | 0.00 | 0.00 | 23 | |
| 20260510164503 | 68 | 54 | 2.0 | 5.0 | 0.00 | 0.00 | 0.00 | 22 | |
| 20260510163603 | 67 | 269 | 2.0 | 4.0 | 0.00 | 0.00 | 0.00 | 29 | |
| 20260510162703 | 67 | 264 | 3.0 | 4.0 | 0.00 | 0.00 | 0.00 | 29 | |
| 20260510161803 | 66 | 269 | 2.0 | 5.0 | 0.00 | 0.00 | 0.00 | 25 | |
| 20260510161112 | 66 | 267 | 2.0 | 4.0 | 0.00 | 0.00 | 0.00 | 25 | |
| 20260510160214 | 65 | 267 | 3.0 | 5.0 | 0.00 | 0.00 | 0.00 | 26 | |
| 20260510155403 | 64 | 282 | 3.0 | 4.0 | 0.00 | 0.00 | 0.00 | 26 | |
| 20260510154503 | 64 | 296 | 2.0 | 4.0 | 0.00 | 0.00 | 0.00 | 30 | |
| 20260510153603 | 63 | 296 | 1.0 | 3.0 | 0.00 | 0.00 | 0.00 | 29 | |
| 20260510152703 | 61 | 296 | 1.0 | 3.0 | 0.00 | 0.00 | 0.00 | 29 | |
| 20260510151803 | 60 | 296 | 1.0 | 3.0 | 0.00 | 0.00 | 0.00 | 32 | |
| 20260510150903 | 59 | 296 | 2.0 | 3.0 | 0.00 | 0.00 | 0.00 | 35 | |
| 20260510150003 | 58 | 296 | 2.0 | 3.0 | 0.00 | 0.00 | 0.00 | 37 | |
| 20260510145403 | 57 | 296 | 2.0 | 3.0 | 0.00 | 0.00 | 0.00 | 36 | |
| 20260510144503 | 56 | 296 | 1.0 | 3.0 | 0.00 | 0.00 | 0.00 | 36 | |
| 20260510143603 | 55 | 298 | 1.0 | 3.0 | 0.00 | 0.00 | 0.00 | 36 | |
| 20260510142703 | 53 | 298 | 0.0 | 1.0 | 0.00 | 0.00 | 0.00 | 42 | |
| 20260510141803 | 50 | 298 | 1.0 | 2.0 | 0.00 | 0.00 | 0.00 | 42 | |
| 20260510140903 | 48 | 298 | 1.0 | 3.0 | 0.00 | 0.00 | 0.00 | 45 | |
| 20260510140003 | 46 | 298 | 0.0 | 2.0 | 0.00 | 0.00 | 0.00 | 43 | |
| 20260510135403 | 45 | 298 | 1.0 | 2.0 | 0.00 | 0.00 | 0.00 | 43 | |
| 20260510134714 | 43 | 298 | 1.0 | 2.0 | 0.00 | 0.00 | 0.00 | 49 | |
| 20260510133603 | 42 | 0 | 0.0 | 0.0 | 0.00 | 0.00 | 0.00 | 43 | |
| 20260510132703 | 42 | 298 | 0.0 | 2.0 | 0.00 | 0.00 | 0.00 | 44 | |
| 20260510132014 | 41 | 298 | 0.0 | 2.0 | 0.00 | 0.00 | 0.00 | 46 | |
| 20260510130903 | 41 | 298 | 1.0 | 3.0 | 0.00 | 0.00 | 0.00 | 44 | |
| 20260510130003 | 41 | 298 | 0.0 | 2.0 | 0.00 | 0.00 | 0.00 | 46 | |
| 20260510125403 | 41 | 0 | 0.0 | 0.0 | 0.00 | 0.00 | 0.00 | 46 | |
| 20260510124713 | 41 | 0 | 0.0 | 0.0 | 0.00 | 0.00 | 0.00 | 45 | |
| 20260510123603 | 42 | 0 | 0.0 | 0.0 | 0.00 | 0.00 | 0.00 | 44 | |
| 20260510122703 | 43 | 0 | 0.0 | 0.0 | 0.00 | 0.00 | 0.00 | 42 | |
| 20260510122013 | 43 | 298 | 1.0 | 2.0 | 0.00 | 0.00 | 0.00 | 41 | |
| 20260510120903 | 42 | 298 | 1.0 | 2.0 | 0.00 | 0.00 | 0.00 | 42 | |
| 20260510120004 | 42 | 298 | 0.0 | 2.0 | 0.00 | 0.00 | 0.00 | 41 | |
| 20260510115403 | 43 | 0 | 0.0 | 0.0 | 0.00 | 0.00 | 0.00 | 38 | |
| 20260510114713 | 43 | 298 | 0.0 | 2.0 | 0.00 | 0.00 | 0.00 | 39 | |
| 20260510113603 | 42 | 0 | 0.0 | 0.0 | 0.00 | 0.00 | 0.00 | 38 | |
| 20260510112703 | 42 | 0 | 0.0 | 0.0 | 0.00 | 0.00 | 0.00 | 37 | |
| 20260510111803 | 41 | 0 | 0.0 | 0.0 | 0.00 | 0.00 | 0.00 | 38 | |
| 20260510110903 | 40 | 0 | 0.0 | 0.0 | 0.00 | 0.00 | 0.00 | 38 | |
| 20260510110004 | 41 | 298 | 0.0 | 1.0 | 0.00 | 0.00 | 0.00 | 42 | |
| 20260510105613 | 41 | 298 | 0.0 | 1.0 | 0.00 | 0.00 | 0.00 | 38 | |
| 20260510104503 | 42 | 298 | 1.0 | 3.0 | 0.00 | 0.00 | 0.00 | 39 | |
| 20260510103603 | 41 | 299 | 1.0 | 3.0 | 0.00 | 0.00 | 0.00 | 38 | |
| 20260510102703 | 41 | 299 | 1.0 | 3.0 | 0.00 | 0.00 | 0.00 | 40 | |
| 20260510101803 | 41 | 299 | 1.0 | 3.0 | 0.00 | 0.00 | 0.00 | 41 | |
| 20260510100903 | 41 | 299 | 1.0 | 3.0 | 0.00 | 0.00 | 0.00 | 40 | |
| 20260510100003 | 41 | 299 | 0.0 | 2.0 | 0.00 | 0.00 | 0.00 | 40 | |
| 20260510095403 | 42 | 299 | 0.0 | 2.0 | 0.00 | 0.00 | 0.00 | 40 | |
| 20260510094503 | 43 | 299 | 1.0 | 3.0 | 0.00 | 0.00 | 0.00 | 40 | |
| 20260510093603 | 43 | 299 | 0.0 | 1.0 | 0.00 | 0.00 | 0.00 | 42 | |
| 20260510092703 | 44 | 309 | 1.0 | 4.0 | 0.00 | 0.00 | 0.00 | 40 | |
| 20260510091803 | 44 | 0 | 0.0 | 0.0 | 0.00 | 0.00 | 0.00 | 38 | |
| 20260510090903 | 45 | 331 | 0.0 | 2.0 | 0.00 | 0.00 | 0.00 | 39 | |
| 20260510090004 | 46 | 331 | 0.0 | 2.0 | 0.00 | 0.00 | 0.00 | 41 | |
| 20260510085403 | 47 | 331 | 0.0 | 2.0 | 0.00 | 0.00 | 0.00 | 35 | |
| 20260510084503 | 47 | 331 | 1.0 | 3.0 | 0.00 | 0.00 | 0.00 | 34 | |
| 20260510083603 | 47 | 331 | 1.0 | 3.0 | 0.00 | 0.00 | 0.00 | 34 | |
| 20260510082703 | 48 | 332 | 0.0 | 2.0 | 0.00 | 0.00 | 0.00 | 34 | |
| 20260510081803 | 49 | 332 | 0.0 | 2.0 | 0.00 | 0.00 | 0.00 | 31 | |
| 20260510080903 | 49 | 334 | 3.0 | 5.0 | 0.00 | 0.00 | 0.00 | 30 | |
| 20260510080003 | 48 | 339 | 2.0 | 5.0 | 0.00 | 0.00 | 0.00 | 32 | |
| 20260510075403 | 49 | 323 | 1.0 | 5.0 | 0.00 | 0.00 | 0.00 | 34 | |
| 20260510074503 | 50 | 323 | 1.0 | 3.0 | 0.00 | 0.00 | 0.00 | 33 | |
| 20260510073603 | 50 | 322 | 2.0 | 4.0 | 0.00 | 0.00 | 0.00 | 32 | |
| 20260510072914 | 50 | 323 | 3.0 | 6.0 | 0.00 | 0.00 | 0.00 | 35 | |
| 20260510071803 | 50 | 328 | 4.0 | 7.0 | 0.00 | 0.00 | 0.00 | 35 | |
| 20260510070903 | 50 | 330 | 2.0 | 4.0 | 0.00 | 0.00 | 0.00 | 34 | |
| 20260510070214 | 50 | 330 | 1.0 | 4.0 | 0.00 | 0.00 | 0.00 | 34 | |
| 20260510065614 | 50 | 327 | 3.0 | 7.0 | 0.00 | 0.00 | 0.00 | 36 | |
| 20260510064503 | 48 | 301 | 3.0 | 5.0 | 0.00 | 0.00 | 0.00 | 37 | |
| 20260510063603 | 49 | 294 | 1.0 | 4.0 | 0.00 | 0.00 | 0.00 | 41 | |
| 20260510062914 | 51 | 299 | 1.0 | 5.0 | 0.00 | 0.00 | 0.00 | 43 | |
| 20260510061803 | 52 | 0 | 0.0 | 0.0 | 0.00 | 0.00 | 0.00 | 35 | |
| 20260510060903 | 53 | 342 | 1.0 | 3.0 | 0.00 | 0.00 | 0.00 | 33 | |
| 20260510060006 | 54 | 341 | 1.0 | 4.0 | 0.00 | 0.00 | 0.00 | 33 | |
| 20260510055613 | 54 | 339 | 2.0 | 5.0 | 0.00 | 0.00 | 0.00 | 32 | |
| 20260510054503 | 54 | 336 | 3.0 | 5.0 | 0.00 | 0.00 | 0.00 | 34 | |
| 20260510053603 | 53 | 345 | 2.0 | 5.0 | 0.00 | 0.00 | 0.00 | 33 | |
| 20260510052703 | 53 | 346 | 0.0 | 3.0 | 0.00 | 0.00 | 0.00 | 34 | |
| 20260510051803 | 54 | 346 | 0.0 | 2.0 | 0.00 | 0.00 | 0.00 | 33 | |
| 20260510050903 | 56 | 346 | 1.0 | 2.0 | 0.00 | 0.00 | 0.00 | 32 | |
| 20260510050213 | 57 | 347 | 1.0 | 4.0 | 0.00 | 0.00 | 0.00 | 31 | |
| 20260510045403 | 56 | 342 | 3.0 | 6.0 | 0.00 | 0.00 | 0.00 | 31 | |
| 20260510044503 | 56 | 326 | 4.0 | 7.0 | 0.00 | 0.00 | 0.00 | 32 | |
| 20260510043603 | 57 | 323 | 2.0 | 5.0 | 0.00 | 0.00 | 0.00 | 32 | |
| 20260510042703 | 58 | 353 | 2.0 | 4.0 | 0.00 | 0.00 | 0.00 | 32 | |
| 20260510042012 | 58 | 360 | 3.0 | 6.0 | 0.00 | 0.00 | 0.00 | 32 | |
| 20260510040903 | 58 | 360 | 0.0 | 1.0 | 0.00 | 0.00 | 0.00 | 30 | |
| 20260510040003 | 59 | 360 | 0.0 | 1.0 | 0.00 | 0.00 | 0.00 | 28 | |
| 20260510035403 | 60 | 0 | 0.0 | 0.0 | 0.00 | 0.00 | 0.00 | 28 | |
| 20260510034503 | 61 | 360 | 0.0 | 3.0 | 0.00 | 0.00 | 0.00 | 28 | |
| 20260510033604 | 62 | 360 | 0.0 | 2.0 | 0.00 | 0.00 | 0.00 | 27 | |
| 20260510032703 | 63 | 360 | 1.0 | 6.0 | 0.00 | 0.00 | 0.00 | 26 | |
| 20260510031803 | 64 | 360 | 1.0 | 2.0 | 0.00 | 0.00 | 0.00 | 25 | |
| 20260510030903 | 65 | 360 | 1.0 | 5.0 | 0.00 | 0.00 | 0.00 | 25 | |
| 20260510030003 | 66 | 360 | 2.0 | 5.0 | 0.00 | 0.00 | 0.00 | 24 | |
| 20260510025403 | 66 | 360 | 2.0 | 4.0 | 0.00 | 0.00 | 0.00 | 23 | |
| 20260510024503 | 67 | 360 | 3.0 | 6.0 | 0.00 | 0.00 | 0.00 | 23 | |
| 20260510023603 | 68 | 360 | 3.0 | 6.0 | 0.00 | 0.00 | 0.00 | 22 | |
| 20260510022703 | 68 | 360 | 4.0 | 7.0 | 0.00 | 0.00 | 0.00 | 22 | |
| 20260510021803 | 69 | 360 | 3.0 | 6.0 | 0.00 | 0.00 | 0.00 | 22 | |
| 20260510020903 | 70 | 360 | 3.0 | 7.0 | 0.00 | 0.00 | 0.00 | 23 | |
| 20260510020003 | 71 | 355 | 4.0 | 10.0 | 0.00 | 0.00 | 0.00 | 22 | |
| 20260510015614 | 72 | 357 | 4.0 | 10.0 | 0.00 | 0.00 | 0.00 | 22 | |
| 20260510014503 | 73 | 2 | 4.0 | 9.0 | 0.00 | 0.00 | 0.00 | 22 | |
| 20260510013812 | 74 | 10 | 5.0 | 12.0 | 0.00 | 0.00 | 0.00 | 22 | |
| 20260510012703 | 74 | 62 | 2.0 | 6.0 | 0.00 | 0.00 | 0.00 | 22 | |
| 20260510011803 | 74 | 71 | 3.0 | 9.0 | 0.00 | 0.00 | 0.00 | 22 | |
| 20260510011112 | 75 | 18 | 4.0 | 8.0 | 0.00 | 0.00 | 0.00 | 22 | |
| 20260510010004 | 75 | 20 | 5.0 | 10.0 | 0.00 | 0.00 | 0.00 | 23 | |
| 20260510005403 | 75 | 71 | 4.0 | 8.0 | 0.00 | 0.00 | 0.00 | 22 | |
| 20260510004503 | 75 | 9 | 5.0 | 13.0 | 0.00 | 0.00 | 0.00 | 23 | |
| 20260510003603 | 75 | 14 | 6.0 | 13.0 | 0.00 | 0.00 | 0.00 | 22 | |
| 20260510002703 | 76 | 87 | 5.0 | 12.0 | 0.00 | 0.00 | 0.00 | 20 | |
| 20260510002013 | 75 | 43 | 7.0 | 15.0 | 0.00 | 0.00 | 0.00 | 22 | |
| 20260510000903 | 75 | 1 | 8.0 | 14.0 | 0.00 | 0.00 | 0.00 | 22 | |
| 20260510000213 | 75 | 353 | 9.0 | 15.0 | 0.00 | 0.00 | 0.00 | 22 | |
| 20260509235403 | 76 | 348 | 10.0 | 16.0 | 0.00 | 0.00 | 0.00 | 23 | |
| 20260509234503 | 76 | 360 | 8.0 | 20.0 | 0.00 | 0.00 | 0.00 | 22 | |
| 20260509233814 | 77 | 336 | 9.0 | 17.0 | 0.00 | 0.00 | 0.00 | 22 | |
| 20260509232703 | 77 | 11 | 7.0 | 16.0 | 0.00 | 0.00 | 0.00 | 25 | |
| 20260509232013 | 77 | 12 | 8.0 | 16.0 | 0.00 | 0.00 | 0.00 | 21 | |
| 20260509230903 | 78 | 327 | 7.0 | 11.0 | 0.00 | 0.00 | 0.00 | 22 | |
| 20260509230213 | 78 | 336 | 6.0 | 11.0 | 0.00 | 0.00 | 0.00 | 24 | |
| 20260509225403 | 77 | 357 | 5.0 | 10.0 | 0.00 | 0.00 | 0.00 | 23 | |
| 20260509224712 | 77 | 8 | 4.0 | 11.0 | 0.00 | 0.00 | 0.00 | 21 | |
| 20260509223603 | 77 | 22 | 5.0 | 11.0 | 0.00 | 0.00 | 0.00 | 23 | |
| 20260509222703 | 78 | 336 | 6.0 | 14.0 | 0.00 | 0.00 | 0.00 | 22 | |
| 20260509222014 | 78 | 336 | 5.0 | 14.0 | 0.00 | 0.00 | 0.00 | 23 | |
| 20260509220903 | 78 | 326 | 6.0 | 13.0 | 0.00 | 0.00 | 0.00 | 22 | |
| 20260509220004 | 77 | 339 | 6.0 | 15.0 | 0.00 | 0.00 | 0.00 | 23 | |
| 20260509215403 | 77 | 355 | 4.0 | 12.0 | 0.00 | 0.00 | 0.00 | 26 | |
| 20260509214504 | 77 | 332 | 8.0 | 14.0 | 0.00 | 0.00 | 0.00 | 22 | |
| 20260509213813 | 77 | 340 | 11.0 | 17.0 | 0.00 | 0.00 | 0.00 | 25 | |
| 20260509212703 | 78 | 327 | 6.0 | 18.0 | 0.00 | 0.00 | 0.00 | 24 | |
| 20260509211803 | 77 | 13 | 5.0 | 13.0 | 0.00 | 0.00 | 0.00 | 23 | |
| 20260509210903 | 78 | 322 | 6.0 | 12.0 | 0.00 | 0.00 | 0.00 | 26 | |
| 20260509210212 | 77 | 323 | 6.0 | 12.0 | 0.00 | 0.00 | 0.00 | 26 | |
| 20260509205614 | 77 | 334 | 6.0 | 14.0 | 0.00 | 0.00 | 0.00 | 23 | |
| 20260509204713 | 77 | 357 | 5.0 | 13.0 | 0.00 | 0.00 | 0.00 | 26 | |
| 20260509203603 | 78 | 348 | 7.0 | 16.0 | 0.00 | 0.00 | 0.00 | 24 | |
| 20260509202703 | 77 | 354 | 9.0 | 14.0 | 0.00 | 0.00 | 0.00 | 23 | |
| 20260509201803 | 78 | 352 | 8.0 | 14.0 | 0.00 | 0.00 | 0.00 | 26 | |
| 20260509201113 | 77 | 10 | 4.0 | 9.0 | 0.00 | 0.00 | 0.00 | 26 | |
| 20260509200214 | 76 | 2 | 5.0 | 11.0 | 0.00 | 0.00 | 0.00 | 25 | |
| 20260509195403 | 76 | 360 | 4.0 | 9.0 | 0.00 | 0.00 | 0.00 | 28 | |
| 20260509194503 | 76 | 360 | 6.0 | 15.0 | 0.00 | 0.00 | 0.00 | 28 | |
| 20260509193603 | 76 | 360 | 6.0 | 14.0 | 0.00 | 0.00 | 0.00 | 27 | |
| 20260509192703 | 76 | 360 | 6.0 | 11.0 | 0.00 | 0.00 | 0.00 | 29 | |
| 20260509192013 | 76 | 360 | 6.0 | 11.0 | 0.00 | 0.00 | 0.00 | 26 |